Regional Weather Roundup
Issued by NWS Boston, MA

Home | Current Version | Previous Version | Text Only | Print | Product List | Glossary On
Versions: 1 2 3 4 5 6 7 8 9 10 11 12 13 14 15 16 17 18 19 20 21 22 23 24 25 26 27 28 29 30 31 32 33 34 35 36 37 38 39 40 41 42 43 44 45 46 47 48 49 50
221
ASUS41 KBOX 220510
RWRBOX

REGIONAL WEATHER ROUNDUP
NATIONAL WEATHER SERVICE BOSTON/NORTON MA
100 AM EDT WED AUG 22 2018

NOTE:  "FAIR" INDICATES FEW OR NO CLOUDS BELOW 12,000 FEET WITH NO
SIGNIFICANT WEATHER AND/OR OBSTRUCTIONS TO VISIBILITY.

MAZALL-220600-
EASTERN MASSACHUSETTS

CITY           SKY/WX    TMP DP  RH WIND       PRES   REMARKS
BOSTON         FAIR      67  63  87 SE5       29.94F
BEVERLY        FAIR      66  64  93 S5        29.93F
LAWRENCE       FAIR      68  62  81 CALM      29.96F
BEDFORD        FAIR      64  61  90 SE3       29.93F
BLUE HILL        N/A     62  62 100 SE9       29.93F
NORWOOD        FAIR      60  59  96 CALM      29.93F
MARSHFIELD     CLOUDY    68  66  94 CALM      29.94F
PLYMOUTH       CLOUDY    67  65  93 CALM      29.95F FOG
TAUNTON        CLOUDY    66  65  96 CALM      29.93F FOG
NEW BEDFORD    CLOUDY    66  66 100 CALM      29.93F
$$

MAZALL-220600-
CAPE COD AND THE ISLANDS

CITY           SKY/WX    TMP DP  RH WIND       PRES   REMARKS
FALMOUTH       CLOUDY    66  66 100 CALM      29.95F FOG
HYANNIS        CLOUDY    67  66  97 CALM      29.93F
CHATHAM        FOG       66  65  96 S3        29.95F VSB 3/4
PROVINCETOWN   CLOUDY    66  65  96 CALM      29.96F FOG
NANTUCKET      FOG       65  65 100 S5        29.94F VSB 3/4
MARTHAS VNYRD  CLOUDY    67  67 100 SE5       29.94F
$$

MAZALL-220600-
CENTRAL AND WESTERN MASSACHUSETTS

CITY           SKY/WX    TMP DP  RH WIND       PRES   REMARKS
WORCESTER      CLOUDY    63  63 100 SE7       29.95F
FITCHBURG      CLOUDY    65  61  87 SE7       29.94F
ORANGE         CLOUDY    69  63  81 S8        29.93F
SPRINGFIELD    CLOUDY    68  62  81 SE7       29.89F
WESTFIELD      CLOUDY    68  64  87 S5        29.90F
NORTH ADAMS    CLOUDY    68  61  78 E9G22     29.88F
PITTSFIELD     CLOUDY    66  61  84 SE12      29.89F
$$

RIZALL-220600-
RHODE ISLAND

CITY           SKY/WX    TMP DP  RH WIND       PRES   REMARKS
PROVIDENCE     CLOUDY    67  66  97 S8        29.95F
NEWPORT        CLOUDY    66  65  96 S6        29.95S
BLOCK ISLAND   CLOUDY    67  67 100 SE7       29.94F
SMITHFIELD     CLOUDY    64  64 100 SE5       29.94F FOG
WESTERLY       LGT RAIN  68  68 100 E6        29.93F FOG
$$

CTZALL-220600-
CONNECTICUT

CITY           SKY/WX    TMP DP  RH WIND       PRES   REMARKS
BRADLEY INTL   CLOUDY    68  64  87 SE9       29.90F
HARTFORD       CLOUDY    68  65  90 SE3       29.89F
BRIDGEPORT     CLOUDY    72  67  84 SE13      29.88F
DANBURY        CLOUDY    69  66  90 VRB5      29.89F
GROTON         CLOUDY    68  67  96 E9        29.90F FOG
NEW HAVEN      CLOUDY    72  68  87 SE12      29.89F
CHESTER        CLOUDY    68  66  94 SE6       29.92F
MERIDEN        CLOUDY    69  65  86 SE6       29.89F
WILLIMANTIC    CLOUDY    68  66  93 SE6       29.92F
OXFORD         CLOUDY    67  66  97 SE8       29.91F
$$

MEZ002-015-021-024-NHZ003-005-008-011-012-014-VTZ005-008-220600-
NORTHERN NEW ENGLAND

CITY           SKY/WX    TMP DP  RH WIND       PRES   REMARKS
PORTLAND ME    CLOUDY    65  63  93 CALM      29.96F
BANGOR ME      CLOUDY    63  59  87 S6        29.98F
CONCORD NH     CLOUDY    64  61  90 SE7       29.94F
MANCHESTER NH  CLOUDY    66  63  90 SE8       29.93F
NASHUA NH      CLOUDY    66  64  93 SE6       29.94F
PORTSMOUTH NH  CLOUDY    65  63  94 CALM      29.93F
JAFFREY NH     CLOUDY    65  63  93 VRB6      29.95F
KEENE NH       CLOUDY   N/A N/A N/A S5        29.91F
BURLINGTON VT  FAIR      74  59  59 S10       29.77F
MT. WASHINGTON FOG       48  48 100 SW25G32     N/A  VSB 0
$$

NYZ052-076-220600-
EASTERN NEW YORK

CITY           SKY/WX    TMP DP  RH WIND       PRES   REMARKS
ALBANY         LGT RAIN  70  63  78 S12       29.84F
NEW YORK CITY  LGT RAIN  74  69  85 SE10      29.83F
$$

ANZALL-220600-
MARINE OBSERVATIONS

STATION/POSITION TIME  TEMP    WIND        PRES    VSBY  WAVE
                       AIR SEA DIR/SP/G                  HT/PER
                 (UTC) (F)     (DEG/KT/KT) (MB)    (MI)  (FT/S)
BOSTON BUOY      0450   67 68  160/  6/ 10 1013.5F         4/ 9
BUZZARDS BAY     NOT AVBL
NANTUCKET SOUND  0450   68 74  120/  4/  6 1013.8F         1/ 9
MASS BAY-STELLWA 0404   67 68  190/  8/ 10 1013.3F  1 7/8  4/11
ISLE OF SHOALS   NOT AVBL
S OF BLOCK IS    0443      72                N/A           3/ 8
$$

......................KEY.........................
  SKY/WX - SKY CONDITION/PRESENT WEATHER
  TMP    - TEMPERATURE IN FAHRENHEIT
  DWPT   - DEWPOINT IN FAHRENHEIT
  RH     - RELATIVE HUMIDITY IN PERCENT
  WIND   - DIRECTION AND SPEED IN MPH
  PRES   - MEAN SEA LEVEL PRESSURE IN INCHES OF HG
  WCI    - WIND CHILL INDEX
  VSB    - VISIBILITY IN MILES
  HX     - HEAT INDEX
  TC     - TEMPERATURE IN CELSIUS
  VRB    - VARIABLE WIND DIRECTION
  N/A    - NOT AVAILABLE




USA.gov is the U.S. government's official web portal to all federal, state and local government web resources and services.